When you browse on this site, cookies collect data to enhance your experience and personalize the content and advertising you see.
Visit our Privacy Policy to learn more. By continuing to use the site, you agree to this use of cookies and data.
  • In Netherlands
  • List of Countries
  • For 7 days
  • Water Temperature
  • Satellite Maps
  • Weather Map
  • Weather Widgets
  • user-avatar
    Login

    Hourly Weather Ghazni

    Today, 21 March, Thursday

    Time Temperature Precipitation Wind Pressure Humidity
    00:00 -3°C° 0 mm 2 mps 581 mmHg 70%
    01:00 -4°C° 0 mm 2 mps 581 mmHg 70%
    02:00 -4°C° 0 mm 2 mps 582 mmHg 69%
    03:00 -4°C° 0 mm 2 mps 582 mmHg 69%
    04:00 -4°C° 0 mm 2 mps 582 mmHg 69%
    05:00 -4°C° 0 mm 2 mps 581 mmHg 68%
    06:00 -4°C° 0 mm 2 mps 581 mmHg 69%
    07:00 -4°C° 0 mm 2 mps 582 mmHg 69%
    08:00 -3°C° 0 mm 2 mps 583 mmHg 69%
    09:00 0°C° 0 mm 1 mps 583 mmHg 76%
    10:00 +1°C° 0 mm 1 mps 584 mmHg 82%
    11:00 +3°C° 0 mm 1 mps 584 mmHg 88%
    12:00 +3°C° 0 mm 1 mps 584 mmHg 90%
    13:00 +4°C° 0 mm 1 mps 584 mmHg 91%
    14:00 +4°C° 0 mm 1 mps 584 mmHg 93%
    15:00 +4°C° 0 mm 1 mps 584 mmHg 87%
    16:00 +4°C° 0 mm 1 mps 584 mmHg 81%
    17:00 +4°C° 0 mm 1 mps 584 mmHg 76%
    18:00 +3°C° 0 mm 1 mps 584 mmHg 74%
    19:00 +1°C° 0 mm 2 mps 584 mmHg 73%
    20:00 -1°C° 0 mm 2 mps 584 mmHg 72%
    21:00 -1°C° 0 mm 2 mps 584 mmHg 70%
    22:00 -2°C° 0 mm 2 mps 584 mmHg 68%
    23:00 -2°C° 0 mm 2 mps 584 mmHg 67%

    Tomorrow, 22 March, Friday

    Time Temperature Precipitation Wind Pressure Humidity
    00:00 -2°C° 0 mm 2 mps 584 mmHg 65%
    01:00 -3°C° 0 mm 2 mps 584 mmHg 63%
    02:00 -3°C° 0 mm 2 mps 584 mmHg 62%
    03:00 -3°C° 0 mm 2 mps 584 mmHg 61%
    04:00 -3°C° 0 mm 2 mps 584 mmHg 61%
    05:00 -4°C° 0 mm 3 mps 584 mmHg 60%
    06:00 -3°C° 0 mm 2 mps 584 mmHg 61%
    07:00 -2°C° 0 mm 2 mps 584 mmHg 62%
    08:00 -1°C° 0 mm 2 mps 585 mmHg 62%
    09:00 +1°C° 0 mm 2 mps 585 mmHg 70%
    10:00 +3°C° 0 mm 1 mps 585 mmHg 77%
    11:00 +4°C° 0 mm 1 mps 585 mmHg 85%
    12:00 +5°C° 0 mm 1 mps 585 mmHg 86%
    13:00 +5°C° 0 mm 1 mps 585 mmHg 88%
    14:00 +6°C° 0 mm 1 mps 585 mmHg 89%
    15:00 +6°C° 0 mm 1 mps 584 mmHg 84%
    16:00 +6°C° 0 mm 1 mps 584 mmHg 78%
    17:00 +6°C° 0 mm 1 mps 584 mmHg 73%
    18:00 +5°C° 0.1 mm 1 mps 584 mmHg 73%
    19:00 +4°C° 0.1 mm 1 mps 584 mmHg 72%
    20:00 +4°C° 0.1 mm 1 mps 584 mmHg 72%
    21:00 +2°C° 0.1 mm 2 mps 584 mmHg 73%
    22:00 +2°C° 0.1 mm 2 mps 584 mmHg 73%
    23:00 +2°C° 0.1 mm 2 mps 584 mmHg 74%

    Day after tomorrow, 23 March, Saturday

    Time Temperature Precipitation Wind Pressure Humidity
    00:00 +2°C° 0.4 mm 2 mps 584 mmHg 78%
    01:00 +2°C° 0.4 mm 2 mps 584 mmHg 81%
    02:00 +2°C° 0.4 mm 2 mps 584 mmHg 84%
    03:00 +2°C° 0.2 mm 2 mps 584 mmHg 84%
    04:00 +2°C° 0.2 mm 2 mps 584 mmHg 83%
    05:00 +1°C° 0.2 mm 2 mps 583 mmHg 83%
    06:00 +2°C° 0.2 mm 2 mps 584 mmHg 83%
    07:00 +2°C° 0.2 mm 2 mps 584 mmHg 83%
    08:00 +2°C° 0.2 mm 2 mps 584 mmHg 83%
    09:00 +3°C° 0.7 mm 2 mps 585 mmHg 86%
    10:00 +2°C° 0.7 mm 3 mps 585 mmHg 88%
    11:00 +2°C° 0.7 mm 3 mps 585 mmHg 91%
    12:00 +4°C° 0.3 mm 2 mps 585 mmHg 91%
    13:00 +4°C° 0.3 mm 2 mps 585 mmHg 91%
    14:00 +4°C° 0.3 mm 2 mps 584 mmHg 91%
    15:00 +5°C° 0 mm 1 mps 584 mmHg 89%
    16:00 +5°C° 0 mm 1 mps 584 mmHg 86%
    17:00 +6°C° 0 mm 1 mps 584 mmHg 83%
    18:00 +5°C° 0 mm 1 mps 584 mmHg 82%
    19:00 +4°C° 0 mm 1 mps 584 mmHg 82%
    20:00 +3°C° 0 mm 1 mps 584 mmHg 81%
    21:00 +3°C° 0 mm 1 mps 584 mmHg 79%
    22:00 +1°C° 0 mm 2 mps 584 mmHg 77%
    23:00 +1°C° 0 mm 2 mps 584 mmHg 75%

    24 March, Sunday

    Time Temperature Precipitation Wind Pressure Humidity
    00:00 +1°C° 0 mm 2 mps 584 mmHg 74%
    01:00 +1°C° 0 mm 2 mps 584 mmHg 73%
    02:00 +1°C° 0 mm 2 mps 584 mmHg 71%
    03:00 +1°C° 0 mm 2 mps 584 mmHg 71%
    04:00 -1°C° 0 mm 2 mps 583 mmHg 70%
    05:00 -1°C° 0 mm 2 mps 583 mmHg 69%
    06:00 +1°C° 0 mm 2 mps 584 mmHg 68%
    07:00 +1°C° 0 mm 2 mps 584 mmHg 66%
    08:00 +1°C° 0 mm 2 mps 585 mmHg 65%
    09:00 +3°C° 0 mm 1 mps 585 mmHg 70%
    10:00 +5°C° 0 mm 1 mps 585 mmHg 74%
    11:00 +5°C° 0 mm 0 mps 586 mmHg 79%
    12:00 +6°C° 0 mm 0 mps 586 mmHg 77%
    13:00 +6°C° 0 mm 0 mps 585 mmHg 76%
    14:00 +7°C° 0 mm 0 mps 585 mmHg 74%
    15:00 +7°C° 0 mm 0 mps 585 mmHg 72%
    16:00 +7°C° 0 mm 0 mps 585 mmHg 69%
    17:00 +8°C° 0 mm 1 mps 584 mmHg 66%
    18:00 +7°C° 0 mm 1 mps 584 mmHg 66%
    19:00 +6°C° 0 mm 1 mps 584 mmHg 65%
    20:00 +4°C° 0 mm 2 mps 584 mmHg 64%
    21:00 +3°C° 0 mm 2 mps 584 mmHg 63%
    22:00 +3°C° 0 mm 2 mps 584 mmHg 61%
    23:00 +2°C° 0 mm 3 mps 584 mmHg 60%

    25 March, Monday

    Time Temperature Precipitation Wind Pressure Humidity
    00:00 +1°C° 0 mm 3 mps 584 mmHg 58%
    01:00 +2°C° 0 mm 2 mps 584 mmHg 56%
    02:00 +2°C° 0 mm 2 mps 583 mmHg 55%
    03:00 +2°C° 0 mm 2 mps 583 mmHg 54%
    04:00 +2°C° 0 mm 2 mps 583 mmHg 53%
    05:00 +1°C° 0 mm 2 mps 583 mmHg 52%
    06:00 +2°C° 0 mm 2 mps 584 mmHg 52%
    07:00 +3°C° 0 mm 2 mps 585 mmHg 53%
    08:00 +3°C° 0 mm 2 mps 585 mmHg 53%
    09:00 +4°C° 0 mm 2 mps 586 mmHg 56%
    10:00 +6°C° 0 mm 1 mps 586 mmHg 60%
    11:00 +7°C° 0 mm 1 mps 586 mmHg 63%
    12:00 +8°C° 0 mm 1 mps 586 mmHg 61%
    13:00 +9°C° 0 mm 1 mps 586 mmHg 59%
    14:00 +8°C° 0 mm 0 mps 586 mmHg 57%
    15:00 +9°C° 0 mm 1 mps 586 mmHg 59%
    16:00 +9°C° 0 mm 1 mps 586 mmHg 60%
    17:00 +8°C° 0 mm 1 mps 586 mmHg 61%
    18:00 +7°C° 0 mm 1 mps 586 mmHg 64%
    19:00 +6°C° 0 mm 1 mps 586 mmHg 67%
    20:00 +5°C° 0 mm 1 mps 586 mmHg 69%
    21:00 +5°C° 0 mm 1 mps 586 mmHg 69%
    22:00 +4°C° 0 mm 2 mps 586 mmHg 69%
    23:00 +3°C° 0 mm 2 mps 586 mmHg 69%

    26 March, Tuesday

    Time Temperature Precipitation Wind Pressure Humidity
    00:00 +3°C° 0 mm 2 mps 586 mmHg 69%
    01:00 +3°C° 0 mm 2 mps 586 mmHg 69%
    02:00 +2°C° 0 mm 3 mps 586 mmHg 69%
    03:00 +3°C° 0 mm 2 mps 586 mmHg 69%
    04:00 +3°C° 0 mm 2 mps 586 mmHg 69%
    05:00 +3°C° 0 mm 2 mps 586 mmHg 69%
    06:00 +3°C° 0 mm 2 mps 586 mmHg 68%
    07:00 +4°C° 0 mm 2 mps 587 mmHg 66%
    08:00 +4°C° 0 mm 2 mps 587 mmHg 64%
    09:00 +7°C° 0 mm 1 mps 588 mmHg 62%
    10:00 +8°C° 0 mm 1 mps 588 mmHg 59%
    11:00 +9°C° 0 mm 0 mps 589 mmHg 57%
    12:00 +11°C° 0 mm 1 mps 589 mmHg 55%
    13:00 +12°C° 0 mm 1 mps 589 mmHg 54%
    14:00 +13°C° 0 mm 1 mps 589 mmHg 53%
    15:00 +13°C° 0 mm 1 mps 589 mmHg 54%
    16:00 +13°C° 0 mm 1 mps 589 mmHg 55%
    17:00 +13°C° 0 mm 1 mps 589 mmHg 55%
    18:00 +12°C° 0 mm 1 mps 588 mmHg 59%
    19:00 +10°C° 0 mm 1 mps 588 mmHg 62%
    20:00 +9°C° 0 mm 1 mps 588 mmHg 66%
    21:00 +9°C° 0 mm 1 mps 588 mmHg 65%
    22:00 +8°C° 0 mm 1 mps 588 mmHg 64%
    23:00 +7°C° 0 mm 2 mps 588 mmHg 63%
    Show more